Wetterdaten: Woche 19.12.16 - 25.12.16 (KW51)
Datum Zeit Temp. A. Feuchte A. Luftdruck Regen Wind Richtung Sonnenschein ET UV Solar Taupunkt Windchill Windben Empfang
19.12.2016 00:00 0,0 C 98 % 1031,7 hPa 0,0 l/m 1,4 km/h (1 Bft) O-NO 0,00 h 0,000 mm 0,0 UV-I 0 W/m -0,2 C 0,0 C 2,2 km/h (1 Bft) 98,95 %
19.12.2016 01:00 -0,0 C 98 % 1031,6 hPa 0,0 l/m 2,4 km/h (1 Bft) O-NO 0,00 h 0,000 mm 0,0 UV-I 0 W/m -0,3 C -0,0 C 3,8 km/h (1 Bft) 98,62 %
19.12.2016 02:00 -0,1 C 98 % 1031,5 hPa 0,0 l/m 3,2 km/h (1 Bft) O-NO 0,00 h 0,000 mm 0,0 UV-I 0 W/m -0,4 C -0,1 C 4,9 km/h (1 Bft) 99,14 %
19.12.2016 03:00 -0,1 C 98 % 1031,2 hPa 0,0 l/m 5,4 km/h (1 Bft) NO 0,00 h 0,000 mm 0,0 UV-I 0 W/m -0,4 C -0,2 C 7,5 km/h (2 Bft) 98,06 %
19.12.2016 04:00 -0,2 C 98 % 1030,6 hPa 0,0 l/m 5,2 km/h (1 Bft) NO 0,00 h 0,000 mm 0,0 UV-I 0 W/m -0,5 C -0,3 C 8,1 km/h (2 Bft) 98,95 %
19.12.2016 05:00 -0,1 C 98 % 1030,6 hPa 0,0 l/m 7,0 km/h (2 Bft) O-NO 0,00 h 0,000 mm 0,0 UV-I 0 W/m -0,4 C -0,9 C 10,8 km/h (2 Bft) 98,03 %
19.12.2016 06:00 0,4 C 98 % 1030,5 hPa 0,0 l/m 15,1 km/h (3 Bft) O-NO 0,00 h 0,000 mm 0,0 UV-I 0 W/m 0,1 C -6,4 C 21,5 km/h (4 Bft) 99,27 %
19.12.2016 07:00 0,4 C 98 % 1030,3 hPa 0,0 l/m 18,5 km/h (3 Bft) O-NO 0,00 h 0,000 mm 0,0 UV-I 3 W/m 0,1 C -8,4 C 26,0 km/h (4 Bft) 97,95 %
19.12.2016 08:00 0,2 C 98 % 1030,1 hPa 0,0 l/m 22,3 km/h (4 Bft) O-NO 0,00 h 0,000 mm 0,0 UV-I 12 W/m -0,1 C -10,3 C 30,1 km/h (5 Bft) 98,71 %
19.12.2016 09:00 0,2 C 97 % 1030,2 hPa 0,0 l/m 20,1 km/h (4 Bft) O-NO 0,00 h 0,000 mm 0,0 UV-I 27 W/m -0,2 C -9,4 C 28,1 km/h (4 Bft) 98,01 %
19.12.2016 10:00 0,2 C 97 % 1030,0 hPa 0,0 l/m 19,7 km/h (3 Bft) O-NO 0,00 h 0,025 mm 0,0 UV-I 54 W/m -0,2 C -9,2 C 26,4 km/h (4 Bft) 99,16 %
19.12.2016 11:00 0,2 C 96 % 1029,5 hPa 0,0 l/m 17,5 km/h (3 Bft) O-NO 0,00 h 0,026 mm 0,0 UV-I 82 W/m -0,3 C -8,0 C 23,7 km/h (4 Bft) 97,98 %
19.12.2016 12:00 0,4 C 95 % 1028,9 hPa 0,2 l/m 15,8 km/h (3 Bft) O-NO 0,00 h 0,025 mm 0,0 UV-I 130 W/m -0,2 C -6,8 C 21,6 km/h (4 Bft) 99,05 %
19.12.2016 13:00 1,0 C 94 % 1028,6 hPa 1,2 l/m 12,8 km/h (3 Bft) NO 0,70 h 0,051 mm 0,0 UV-I 180 W/m 0,2 C -4,1 C 18,6 km/h (3 Bft) 98,14 %
19.12.2016 14:00 1,1 C 94 % 1028,2 hPa 0,6 l/m 15,1 km/h (3 Bft) O-NO 0,70 h 0,076 mm 0,0 UV-I 125 W/m 0,2 C -5,6 C 21,6 km/h (4 Bft) 99,49 %
19.12.2016 15:00 0,8 C 95 % 1027,8 hPa 0,0 l/m 15,1 km/h (3 Bft) O-NO 0,23 h 0,051 mm 0,0 UV-I 40 W/m -0,0 C -6,1 C 20,9 km/h (4 Bft) 98,16 %
19.12.2016 16:00 0,7 C 96 % 1027,7 hPa 0,2 l/m 15,5 km/h (3 Bft) O-NO 0,00 h 0,025 mm 0,0 UV-I 6 W/m 0,1 C -6,3 C 21,4 km/h (4 Bft) 99,77 %
19.12.2016 17:00 0,6 C 96 % 1027,8 hPa 0,0 l/m 14,0 km/h (3 Bft) O-NO 0,00 h 0,000 mm 0,0 UV-I 0 W/m 0,0 C -5,6 C 21,0 km/h (4 Bft) 97,97 %
19.12.2016 18:00 0,4 C 96 % 1027,9 hPa 0,2 l/m 18,0 km/h (3 Bft) O-NO 0,00 h 0,000 mm 0,0 UV-I 0 W/m -0,2 C -7,9 C 24,7 km/h (4 Bft) 99,46 %
19.12.2016 19:00 0,1 C 96 % 1027,8 hPa 0,0 l/m 13,5 km/h (3 Bft) O-NO 0,00 h 0,000 mm 0,0 UV-I 0 W/m -0,4 C -5,7 C 19,6 km/h (3 Bft) 97,96 %
19.12.2016 20:00 -0,2 C 96 % 1027,9 hPa 0,0 l/m 11,6 km/h (2 Bft) O-NO 0,00 h 0,000 mm 0,0 UV-I 0 W/m -0,7 C -4,8 C 17,0 km/h (3 Bft) 99,46 %
19.12.2016 21:00 -0,4 C 97 % 1028,1 hPa 0,0 l/m 13,1 km/h (3 Bft) O-NO 0,00 h 0,000 mm 0,0 UV-I 0 W/m -0,8 C -6,1 C 18,8 km/h (3 Bft) 97,79 %
19.12.2016 22:00 -0,6 C 97 % 1028,4 hPa 0,0 l/m 12,6 km/h (3 Bft) O-NO 0,00 h 0,000 mm 0,0 UV-I 0 W/m -1,0 C -5,9 C 18,3 km/h (3 Bft) 99,06 %
19.12.2016 23:00 -0,7 C 96 % 1028,5 hPa 0,0 l/m 13,8 km/h (3 Bft) O-NO 0,00 h 0,000 mm 0,0 UV-I 0 W/m -1,2 C -6,9 C 19,1 km/h (3 Bft) 97,88 %
20.12.2016 00:00 -0,8 C 96 % 1028,3 hPa 0,0 l/m 16,4 km/h (3 Bft) O-NO 0,00 h 0,000 mm 0,0 UV-I 0 W/m -1,4 C -8,7 C 23,3 km/h (4 Bft) 98,96 %
20.12.2016 01:00 -1,0 C 96 % 1028,3 hPa 0,0 l/m 20,1 km/h (4 Bft) O-NO 0,00 h 0,000 mm 0,0 UV-I 0 W/m -1,6 C -10,8 C 27,9 km/h (4 Bft) 97,78 %
20.12.2016 02:00 -1,1 C 96 % 1028,4 hPa 0,0 l/m 21,0 km/h (4 Bft) O-NO 0,00 h 0,000 mm 0,0 UV-I 0 W/m -1,7 C -11,4 C 29,6 km/h (5 Bft) 99,03 %
20.12.2016 03:00 -1,2 C 95 % 1028,1 hPa 0,0 l/m 22,3 km/h (4 Bft) O-NO 0,00 h 0,000 mm 0,0 UV-I 0 W/m -1,9 C -12,2 C 30,8 km/h (5 Bft) 98,76 %
20.12.2016 04:00 -1,3 C 95 % 1027,8 hPa 0,0 l/m 22,8 km/h (4 Bft) O-NO 0,00 h 0,000 mm 0,0 UV-I 0 W/m -2,0 C -12,5 C 32,0 km/h (5 Bft) 98,98 %
20.12.2016 05:00 -1,5 C 94 % 1027,6 hPa 0,0 l/m 23,6 km/h (4 Bft) O-NO 0,00 h 0,000 mm 0,0 UV-I 0 W/m -2,4 C -13,2 C 31,9 km/h (5 Bft) 98,39 %
20.12.2016 06:00 -1,7 C 95 % 1027,5 hPa 0,0 l/m 20,8 km/h (4 Bft) O-NO 0,00 h 0,000 mm 0,0 UV-I 0 W/m -2,4 C -12,1 C 29,2 km/h (5 Bft) 99,12 %
20.12.2016 07:00 -1,7 C 95 % 1027,4 hPa 0,0 l/m 23,1 km/h (4 Bft) O-NO 0,00 h 0,000 mm 0,0 UV-I 4 W/m -2,4 C -13,2 C 32,4 km/h (5 Bft) 98,52 %
20.12.2016 08:00 -1,8 C 95 % 1027,4 hPa 0,0 l/m 26,5 km/h (4 Bft) O-NO 0,00 h 0,000 mm 0,0 UV-I 12 W/m -2,5 C -14,7 C 36,0 km/h (5 Bft) 98,95 %
20.12.2016 09:00 -1,9 C 95 % 1027,4 hPa 0,0 l/m 26,2 km/h (4 Bft) O-NO 0,00 h 0,000 mm 0,0 UV-I 25 W/m -2,6 C -14,7 C 35,5 km/h (5 Bft) 98,70 %
20.12.2016 10:00 -2,1 C 96 % 1027,2 hPa 0,0 l/m 26,5 km/h (4 Bft) O-NO 0,00 h 0,025 mm 0,0 UV-I 34 W/m -2,6 C -15,0 C 36,2 km/h (5 Bft) 98,55 %
20.12.2016 11:00 -2,1 C 96 % 1026,7 hPa 0,0 l/m 24,1 km/h (4 Bft) O-NO 0,00 h 0,026 mm 0,0 UV-I 54 W/m -2,6 C -14,1 C 34,0 km/h (5 Bft) 98,33 %
20.12.2016 12:00 -2,1 C 96 % 1026,1 hPa 0,0 l/m 25,8 km/h (4 Bft) O-NO 0,00 h 0,025 mm 0,0 UV-I 96 W/m -2,7 C -14,8 C 35,3 km/h (5 Bft) 97,43 %
20.12.2016 13:00 -2,1 C 95 % 1025,6 hPa 0,0 l/m 23,8 km/h (4 Bft) O-NO 0,00 h 0,026 mm 0,0 UV-I 77 W/m -2,8 C -14,0 C 32,8 km/h (5 Bft) 98,90 %
20.12.2016 14:00 -2,1 C 95 % 1025,5 hPa 0,0 l/m 20,9 km/h (4 Bft) O-NO 0,00 h 0,025 mm 0,0 UV-I 42 W/m -2,8 C -12,7 C 29,1 km/h (5 Bft) 97,93 %
20.12.2016 15:00 -1,9 C 95 % 1025,4 hPa 0,0 l/m 20,1 km/h (4 Bft) O-NO 0,00 h 0,025 mm 0,0 UV-I 18 W/m -2,6 C -12,0 C 28,1 km/h (4 Bft) 98,87 %
20.12.2016 16:00 -2,0 C 95 % 1025,3 hPa 0,0 l/m 20,4 km/h (4 Bft) O-NO 0,00 h 0,000 mm 0,0 UV-I 5 W/m -2,7 C -12,4 C 28,8 km/h (4 Bft) 98,06 %
20.12.2016 17:00 -2,3 C 96 % 1025,2 hPa 0,0 l/m 22,6 km/h (4 Bft) O-NO 0,00 h 0,000 mm 0,0 UV-I 0 W/m -2,9 C -13,8 C 31,5 km/h (5 Bft) 99,04 %
20.12.2016 18:00 -2,4 C 96 % 1025,2 hPa 0,0 l/m 19,8 km/h (4 Bft) O-NO 0,00 h 0,000 mm 0,0 UV-I 0 W/m -2,9 C -12,6 C 27,9 km/h (4 Bft) 97,81 %
20.12.2016 19:00 -2,5 C 96 % 1025,3 hPa 0,0 l/m 19,5 km/h (3 Bft) O-NO 0,00 h 0,000 mm 0,0 UV-I 0 W/m -3,0 C -12,5 C 27,3 km/h (4 Bft) 99,09 %
20.12.2016 20:00 -2,5 C 96 % 1025,6 hPa 0,0 l/m 18,6 km/h (3 Bft) NO 0,00 h 0,000 mm 0,0 UV-I 0 W/m -3,1 C -12,1 C 26,2 km/h (4 Bft) 97,37 %
20.12.2016 21:00 -2,6 C 96 % 1026,1 hPa 0,0 l/m 17,1 km/h (3 Bft) O-NO 0,00 h 0,000 mm 0,0 UV-I 0 W/m -3,1 C -11,3 C 23,4 km/h (4 Bft) 99,02 %
20.12.2016 22:00 -2,6 C 96 % 1026,7 hPa 0,0 l/m 12,9 km/h (3 Bft) O-NO 0,00 h 0,000 mm 0,0 UV-I 0 W/m -3,1 C -8,6 C 19,4 km/h (3 Bft) 97,46 %
20.12.2016 23:00 -2,7 C 96 % 1027,4 hPa 0,0 l/m 12,6 km/h (3 Bft) O-NO 0,00 h 0,000 mm 0,0 UV-I 0 W/m -3,2 C -8,4 C 18,3 km/h (3 Bft) 99,15 %
21.12.2016 00:00 -2,8 C 96 % 1027,9 hPa 0,0 l/m 10,9 km/h (2 Bft) O-NO 0,00 h 0,000 mm 0,0 UV-I 0 W/m -3,3 C -7,2 C 16,0 km/h (3 Bft) 97,91 %
21.12.2016 01:00 -2,7 C 96 % 1028,3 hPa 0,0 l/m 11,5 km/h (2 Bft) O-NO 0,00 h 0,000 mm 0,0 UV-I 0 W/m -3,3 C -7,7 C 16,6 km/h (3 Bft) 98,93 %
21.12.2016 02:00 -2,8 C 96 % 1028,8 hPa 0,0 l/m 11,4 km/h (2 Bft) O-NO 0,00 h 0,000 mm 0,0 UV-I 0 W/m -3,4 C -7,7 C 16,7 km/h (3 Bft) 97,45 %
21.12.2016 03:00 -3,0 C 97 % 1028,9 hPa 0,0 l/m 11,1 km/h (2 Bft) O-NO 0,00 h 0,000 mm 0,0 UV-I 0 W/m -3,4 C -7,5 C 16,6 km/h (3 Bft) 99,38 %
21.12.2016 04:00 -3,0 C 97 % 1029,1 hPa 0,0 l/m 11,5 km/h (2 Bft) O-NO 0,00 h 0,000 mm 0,0 UV-I 0 W/m -3,4 C -7,9 C 17,1 km/h (3 Bft) 97,84 %
21.12.2016 05:00 -3,2 C 97 % 1029,5 hPa 0,0 l/m 11,8 km/h (2 Bft) O-NO 0,00 h 0,000 mm 0,0 UV-I 0 W/m -3,6 C -8,3 C 16,9 km/h (3 Bft) 98,97 %
21.12.2016 06:00 -3,4 C 97 % 1029,8 hPa 0,0 l/m 15,3 km/h (3 Bft) O-NO 0,00 h 0,000 mm 0,0 UV-I 0 W/m -3,8 C -11,3 C 20,5 km/h (4 Bft) 98,06 %
21.12.2016 07:00 -3,5 C 97 % 1030,0 hPa 0,0 l/m 11,7 km/h (2 Bft) O-NO 0,00 h 0,000 mm 0,0 UV-I 5 W/m -3,9 C -8,7 C 16,4 km/h (3 Bft) 99,36 %
21.12.2016 08:00 -3,7 C 97 % 1030,5 hPa 0,0 l/m 12,4 km/h (3 Bft) O-NO 0,00 h 0,000 mm 0,0 UV-I 13 W/m -4,1 C -9,3 C 17,9 km/h (3 Bft) 98,13 %
21.12.2016 09:00 -3,5 C 97 % 1031,1 hPa 0,0 l/m 9,4 km/h (2 Bft) NO 0,00 h 0,000 mm 0,0 UV-I 31 W/m -3,9 C -6,6 C 14,0 km/h (3 Bft) 99,35 %
21.12.2016 10:00 -3,6 C 97 % 1031,7 hPa 0,0 l/m 7,9 km/h (2 Bft) O-NO 0,00 h 0,000 mm 0,0 UV-I 49 W/m -4,0 C -5,4 C 12,5 km/h (3 Bft) 98,27 %
21.12.2016 11:00 -3,4 C 97 % 1031,6 hPa 0,0 l/m 8,0 km/h (2 Bft) O-NO 0,00 h 0,025 mm 0,0 UV-I 59 W/m -3,9 C -5,5 C 12,5 km/h (3 Bft) 99,17 %
21.12.2016 12:00 -3,3 C 96 % 1031,5 hPa 0,0 l/m 8,9 km/h (2 Bft) NO 0,00 h 0,026 mm 0,0 UV-I 58 W/m -3,8 C -5,9 C 14,1 km/h (3 Bft) 98,10 %
21.12.2016 13:00 -3,2 C 96 % 1031,7 hPa 0,0 l/m 7,0 km/h (2 Bft) NO 0,00 h 0,025 mm 0,0 UV-I 47 W/m -3,7 C -4,4 C 11,1 km/h (2 Bft) 99,17 %
21.12.2016 14:00 -3,2 C 95 % 1032,2 hPa 0,0 l/m 5,6 km/h (1 Bft) O-NO 0,00 h 0,026 mm 0,0 UV-I 34 W/m -3,8 C -4,1 C 9,6 km/h (2 Bft) 98,05 %
21.12.2016 15:00 -3,2 C 95 % 1032,8 hPa 0,0 l/m 2,9 km/h (1 Bft) NO 0,00 h 0,000 mm 0,0 UV-I 14 W/m -3,9 C -3,3 C 5,1 km/h (1 Bft) 98,77 %
21.12.2016 16:00 -3,4 C 95 % 1033,1 hPa 0,0 l/m 5,7 km/h (1 Bft) O-NO 0,00 h 0,000 mm 0,0 UV-I 5 W/m -4,1 C -3,7 C 9,4 km/h (2 Bft) 98,17 %
21.12.2016 17:00 -3,5 C 96 % 1033,4 hPa 0,0 l/m 4,5 km/h (1 Bft) NO 0,00 h 0,000 mm 0,0 UV-I 0 W/m -4,1 C -3,6 C 7,1 km/h (2 Bft) 98,93 %
21.12.2016 18:00 -3,4 C 96 % 1033,7 hPa 0,0 l/m 5,7 km/h (1 Bft) NO 0,00 h 0,000 mm 0,0 UV-I 0 W/m -3,9 C -4,0 C 9,1 km/h (2 Bft) 98,45 %
21.12.2016 19:00 -3,6 C 97 % 1033,9 hPa 0,0 l/m 7,4 km/h (2 Bft) NO 0,00 h 0,000 mm 0,0 UV-I 0 W/m -4,0 C -4,8 C 11,2 km/h (2 Bft) 98,31 %
21.12.2016 20:00 -3,7 C 97 % 1034,0 hPa 0,0 l/m 7,1 km/h (2 Bft) O-NO 0,00 h 0,000 mm 0,0 UV-I 0 W/m -4,1 C -4,7 C 10,7 km/h (2 Bft) 98,55 %
21.12.2016 21:00 -3,6 C 97 % 1034,0 hPa 0,0 l/m 7,0 km/h (2 Bft) NO 0,00 h 0,000 mm 0,0 UV-I 0 W/m -4,0 C -4,8 C 11,2 km/h (2 Bft) 97,65 %
21.12.2016 22:00 -3,6 C 97 % 1034,1 hPa 0,0 l/m 7,2 km/h (2 Bft) O-NO 0,00 h 0,000 mm 0,0 UV-I 0 W/m -4,0 C -4,7 C 11,3 km/h (2 Bft) 98,70 %
21.12.2016 23:00 -3,7 C 97 % 1034,0 hPa 0,0 l/m 9,0 km/h (2 Bft) O-NO 0,00 h 0,000 mm 0,0 UV-I 0 W/m -4,1 C -6,5 C 13,5 km/h (3 Bft) 98,24 %
22.12.2016 00:00 -3,8 C 97 % 1033,7 hPa 0,0 l/m 10,0 km/h (2 Bft) O-NO 0,00 h 0,000 mm 0,0 UV-I 0 W/m -4,2 C -7,5 C 14,9 km/h (3 Bft) 98,76 %
22.12.2016 01:00 -3,8 C 97 % 1033,5 hPa 0,0 l/m 9,0 km/h (2 Bft) O-NO 0,00 h 0,000 mm 0,0 UV-I 0 W/m -4,2 C -6,5 C 13,9 km/h (3 Bft) 98,42 %
22.12.2016 02:00 -3,7 C 97 % 1033,5 hPa 0,0 l/m 6,2 km/h (2 Bft) NO 0,00 h 0,000 mm 0,0 UV-I 0 W/m -4,1 C -4,2 C 9,5 km/h (2 Bft) 98,74 %
22.12.2016 03:00 -3,7 C 97 % 1033,5 hPa 0,0 l/m 5,8 km/h (2 Bft) NO 0,00 h 0,000 mm 0,0 UV-I 0 W/m -4,1 C -3,8 C 9,1 km/h (2 Bft) 98,56 %
22.12.2016 04:00 -3,8 C 97 % 1033,5 hPa 0,0 l/m 5,7 km/h (1 Bft) NO 0,00 h 0,000 mm 0,0 UV-I 0 W/m -4,2 C -4,1 C 8,6 km/h (2 Bft) 98,90 %
22.12.2016 05:00 -3,8 C 97 % 1033,6 hPa 0,0 l/m 5,8 km/h (2 Bft) O-NO 0,00 h 0,000 mm 0,0 UV-I 0 W/m -4,2 C -4,3 C 8,9 km/h (2 Bft) 97,86 %
22.12.2016 06:00 -3,8 C 97 % 1034,1 hPa 0,0 l/m 4,3 km/h (1 Bft) NO 0,00 h 0,000 mm 0,0 UV-I 0 W/m -4,2 C -3,8 C 7,1 km/h (2 Bft) 99,27 %
22.12.2016 07:00 -3,9 C 97 % 1034,8 hPa 0,0 l/m 3,6 km/h (1 Bft) NO 0,00 h 0,000 mm 0,0 UV-I 5 W/m -4,3 C -3,9 C 6,0 km/h (2 Bft) 97,80 %
22.12.2016 08:00 -3,9 C 97 % 1035,4 hPa 0,0 l/m 3,2 km/h (1 Bft) O-NO 0,00 h 0,000 mm 0,0 UV-I 12 W/m -4,3 C -3,9 C 5,1 km/h (1 Bft) 99,45 %
22.12.2016 09:00 -3,7 C 97 % 1035,5 hPa 0,0 l/m 2,8 km/h (1 Bft) O-NO 0,00 h 0,000 mm 0,0 UV-I 30 W/m -4,1 C -3,7 C 5,1 km/h (1 Bft) 97,51 %
22.12.2016 10:00 -3,6 C 97 % 1035,2 hPa 0,0 l/m 4,2 km/h (1 Bft) O-NO 0,00 h 0,000 mm 0,0 UV-I 54 W/m -4,0 C -3,6 C 6,2 km/h (2 Bft) 99,13 %
22.12.2016 11:00 -3,4 C 97 % 1034,6 hPa 0,0 l/m 3,4 km/h (1 Bft) NO 0,00 h 0,025 mm 0,0 UV-I 66 W/m -3,8 C -3,4 C 5,2 km/h (1 Bft) 97,51 %
22.12.2016 12:00 -3,4 C 97 % 1034,4 hPa 0,0 l/m 1,1 km/h (1 Bft) NO 0,00 h 0,026 mm 0,0 UV-I 67 W/m -3,8 C -3,4 C 2,8 km/h (1 Bft) 99,19 %
22.12.2016 13:00 -3,5 C 97 % 1034,4 hPa 0,0 l/m 0,9 km/h (0 Bft) NO 0,00 h 0,025 mm 0,0 UV-I 59 W/m -3,9 C -3,5 C 2,1 km/h (1 Bft) 97,73 %
22.12.2016 14:00 -3,3 C 97 % 1034,3 hPa 0,0 l/m 1,2 km/h (1 Bft) S-SW 0,00 h 0,026 mm 0,0 UV-I 40 W/m -3,7 C -3,3 C 2,7 km/h (1 Bft) 99,14 %
22.12.2016 15:00 -3,1 C 97 % 1034,4 hPa 0,0 l/m 0,7 km/h (0 Bft) S 0,00 h 0,000 mm 0,0 UV-I 18 W/m -3,5 C -3,1 C 2,2 km/h (1 Bft) 97,48 %
22.12.2016 16:00 -3,1 C 97 % 1034,7 hPa 0,0 l/m 0,5 km/h (0 Bft) O-NO 0,00 h 0,000 mm 0,0 UV-I 6 W/m -3,5 C -3,1 C 1,3 km/h (1 Bft) 99,23 %
22.12.2016 17:00 -3,1 C 97 % 1035,1 hPa 0,0 l/m 1,4 km/h (1 Bft) O 0,00 h 0,000 mm 0,0 UV-I 0 W/m -3,6 C -3,1 C 2,8 km/h (1 Bft) 98,00 %
22.12.2016 18:00 -3,3 C 97 % 1035,4 hPa 0,0 l/m 0,7 km/h (0 Bft) O 0,00 h 0,000 mm 0,0 UV-I 0 W/m -3,7 C -3,3 C 1,7 km/h (1 Bft) 99,49 %
22.12.2016 19:00 -3,3 C 97 % 1035,5 hPa 0,0 l/m 0,6 km/h (0 Bft) O 0,00 h 0,000 mm 0,0 UV-I 0 W/m -3,7 C -3,3 C 1,4 km/h (1 Bft) 98,50 %
22.12.2016 20:00 -3,3 C 97 % 1035,5 hPa 0,0 l/m 0,1 km/h (0 Bft) N 0,00 h 0,000 mm 0,0 UV-I 0 W/m -3,7 C -3,3 C 0,4 km/h (0 Bft) 98,56 %
22.12.2016 21:00 -3,3 C 97 % 1035,5 hPa 0,0 l/m 0,2 km/h (0 Bft) O 0,00 h 0,000 mm 0,0 UV-I 0 W/m -3,7 C -3,3 C 1,0 km/h (0 Bft) 98,07 %
22.12.2016 22:00 -3,2 C 97 % 1035,5 hPa 0,0 l/m 0,2 km/h (0 Bft) N 0,00 h 0,000 mm 0,0 UV-I 0 W/m -3,6 C -3,2 C 0,9 km/h (0 Bft) 98,79 %
22.12.2016 23:00 -3,1 C 97 % 1035,5 hPa 0,0 l/m 0,1 km/h (0 Bft) S 0,00 h 0,000 mm 0,0 UV-I 0 W/m -3,5 C -3,1 C 0,6 km/h (0 Bft) 97,46 %
23.12.2016 00:00 -3,1 C 98 % 1035,5 hPa 0,0 l/m 0,0 km/h (0 Bft) N 0,00 h 0,000 mm 0,0 UV-I 0 W/m -3,3 C -3,1 C 0,2 km/h (0 Bft) 98,34 %
23.12.2016 01:00 -3,1 C 97 % 1035,6 hPa 0,0 l/m 0,4 km/h (0 Bft) W-SW 0,00 h 0,000 mm 0,0 UV-I 0 W/m -3,5 C -3,1 C 1,0 km/h (0 Bft) 98,44 %
23.12.2016 02:00 -3,2 C 97 % 1036,0 hPa 0,0 l/m 0,6 km/h (0 Bft) W-SW 0,00 h 0,000 mm 0,0 UV-I 0 W/m -3,6 C -3,2 C 1,8 km/h (1 Bft) 98,59 %
23.12.2016 03:00 -3,4 C 97 % 1036,1 hPa 0,0 l/m 0,4 km/h (0 Bft) W-SW 0,00 h 0,000 mm 0,0 UV-I 0 W/m -3,8 C -3,4 C 1,1 km/h (0 Bft) 98,20 %
23.12.2016 04:00 -3,3 C 97 % 1036,1 hPa 0,0 l/m 0,2 km/h (0 Bft) W-SW 0,00 h 0,000 mm 0,0 UV-I 0 W/m -3,7 C -3,3 C 0,7 km/h (0 Bft) 98,73 %
23.12.2016 05:00 -3,1 C 97 % 1036,4 hPa 0,0 l/m 0,5 km/h (0 Bft) W 0,00 h 0,000 mm 0,0 UV-I 0 W/m -3,5 C -3,1 C 1,7 km/h (1 Bft) 98,85 %
23.12.2016 06:00 -3,0 C 97 % 1036,8 hPa 0,0 l/m 0,7 km/h (0 Bft) W 0,00 h 0,000 mm 0,0 UV-I 0 W/m -3,4 C -3,0 C 1,9 km/h (1 Bft) 98,23 %
23.12.2016 07:00 -2,9 C 97 % 1037,3 hPa 0,0 l/m 0,2 km/h (0 Bft) N 0,00 h 0,000 mm 0,0 UV-I 8 W/m -3,3 C -2,9 C 1,0 km/h (0 Bft) 98,76 %
23.12.2016 08:00 -2,7 C 98 % 1038,1 hPa 0,0 l/m 0,6 km/h (0 Bft) SW 0,07 h 0,000 mm 0,0 UV-I 19 W/m -3,0 C -2,7 C 1,8 km/h (1 Bft) 98,35 %
23.12.2016 09:00 -2,2 C 98 % 1038,7 hPa 0,0 l/m 1,2 km/h (1 Bft) W 0,00 h 0,000 mm 0,0 UV-I 34 W/m -2,5 C -2,2 C 2,9 km/h (1 Bft) 99,29 %
23.12.2016 10:00 -2,0 C 98 % 1038,7 hPa 0,0 l/m 1,3 km/h (1 Bft) W-SW 0,00 h 0,000 mm 0,0 UV-I 79 W/m -2,3 C -2,0 C 2,8 km/h (1 Bft) 98,21 %
23.12.2016 11:00 -1,4 C 98 % 1038,4 hPa 0,0 l/m 0,1 km/h (0 Bft) N 0,00 h 0,025 mm 0,0 UV-I 92 W/m -1,6 C -1,4 C 0,5 km/h (0 Bft) 99,22 %
23.12.2016 12:00 -0,9 C 98 % 1038,0 hPa 0,2 l/m 0,0 km/h (0 Bft) N 0,00 h 0,026 mm 0,0 UV-I 105 W/m -1,2 C -0,9 C 0,1 km/h (0 Bft) 97,94 %
23.12.2016 13:00 -0,4 C 98 % 1037,3 hPa 0,2 l/m 0,7 km/h (0 Bft) SO 0,00 h 0,025 mm 0,0 UV-I 84 W/m -0,7 C -0,4 C 1,9 km/h (1 Bft) 99,15 %
23.12.2016 14:00 -0,1 C 98 % 1036,8 hPa 0,0 l/m 0,7 km/h (0 Bft) SO 0,00 h 0,026 mm 0,0 UV-I 54 W/m -0,4 C -0,1 C 2,0 km/h (1 Bft) 98,01 %
23.12.2016 15:00 -0,1 C 98 % 1036,5 hPa 0,0 l/m 1,2 km/h (1 Bft) SO 0,00 h 0,025 mm 0,0 UV-I 19 W/m -0,3 C -0,1 C 2,8 km/h (1 Bft) 99,79 %
23.12.2016 16:00 0,1 C 98 % 1036,3 hPa 0,0 l/m 0,3 km/h (0 Bft) SO 0,00 h 0,000 mm 0,0 UV-I 6 W/m -0,2 C 0,1 C 1,6 km/h (1 Bft) 98,08 %
23.12.2016 17:00 0,1 C 98 % 1036,0 hPa 0,0 l/m 0,0 km/h (0 Bft) N 0,00 h 0,000 mm 0,0 UV-I 0 W/m -0,2 C 0,1 C 0,2 km/h (0 Bft) 99,20 %
23.12.2016 18:00 0,2 C 98 % 1035,4 hPa 0,0 l/m 1,6 km/h (1 Bft) SO 0,00 h 0,000 mm 0,0 UV-I 0 W/m -0,1 C 0,2 C 2,7 km/h (1 Bft) 98,02 %
23.12.2016 19:00 0,1 C 99 % 1034,6 hPa 0,2 l/m 2,5 km/h (1 Bft) O-NO 0,00 h 0,000 mm 0,0 UV-I 0 W/m -0,0 C 0,1 C 4,1 km/h (1 Bft) 98,54 %
23.12.2016 20:00 -0,1 C 99 % 1034,0 hPa 0,0 l/m 3,8 km/h (1 Bft) N-NO 0,00 h 0,000 mm 0,0 UV-I 0 W/m -0,2 C -0,1 C 5,6 km/h (1 Bft) 97,85 %
23.12.2016 21:00 -0,4 C 99 % 1033,7 hPa 0,0 l/m 5,2 km/h (1 Bft) NO 0,00 h 0,000 mm 0,0 UV-I 0 W/m -0,6 C -0,5 C 7,3 km/h (2 Bft) 99,05 %
23.12.2016 22:00 -0,7 C 99 % 1033,3 hPa 0,0 l/m 4,0 km/h (1 Bft) O-NO 0,00 h 0,000 mm 0,0 UV-I 0 W/m -0,9 C -0,7 C 5,8 km/h (2 Bft) 97,94 %
23.12.2016 23:00 -0,6 C 99 % 1033,1 hPa 0,0 l/m 0,4 km/h (0 Bft) O-NO 0,00 h 0,000 mm 0,0 UV-I 0 W/m -0,7 C -0,6 C 1,5 km/h (1 Bft) 98,85 %
24.12.2016 00:00 -0,5 C 99 % 1032,6 hPa 0,0 l/m 1,2 km/h (1 Bft) O-SO 0,00 h 0,000 mm 0,0 UV-I 0 W/m -0,6 C -0,5 C 2,7 km/h (1 Bft) 98,52 %
24.12.2016 01:00 -0,4 C 99 % 1032,1 hPa 0,0 l/m 1,1 km/h (1 Bft) S-SO 0,00 h 0,000 mm 0,0 UV-I 0 W/m -0,5 C -0,4 C 3,0 km/h (1 Bft) 99,12 %
24.12.2016 02:00 -0,6 C 99 % 1032,3 hPa 0,0 l/m 2,1 km/h (1 Bft) S-SW 0,00 h 0,000 mm 0,0 UV-I 0 W/m -0,7 C -0,6 C 3,7 km/h (1 Bft) 98,55 %
24.12.2016 03:00 -0,8 C 99 % 1032,3 hPa 0,0 l/m 3,9 km/h (1 Bft) W-SW 0,00 h 0,000 mm 0,0 UV-I 0 W/m -0,9 C -0,8 C 6,4 km/h (2 Bft) 98,41 %
24.12.2016 04:00 -0,7 C 99 % 1032,0 hPa 0,0 l/m 2,1 km/h (1 Bft) S-SW 0,00 h 0,000 mm 0,0 UV-I 0 W/m -0,8 C -0,7 C 3,8 km/h (1 Bft) 67,63 %
24.12.2016 05:00 -0,4 C 99 % 1032,5 hPa 0,0 l/m 4,8 km/h (1 Bft) W 0,00 h 0,000 mm 0,0 UV-I 0 W/m -0,5 C -0,4 C 8,4 km/h (2 Bft) 98,47 %
24.12.2016 06:00 -0,1 C 99 % 1032,0 hPa 0,0 l/m 3,5 km/h (1 Bft) S-SW 0,00 h 0,000 mm 0,0 UV-I 0 W/m -0,2 C -0,1 C 6,6 km/h (2 Bft) 99,08 %
24.12.2016 07:00 0,2 C 99 % 1031,6 hPa 0,0 l/m 5,3 km/h (1 Bft) SW 0,00 h 0,000 mm 0,0 UV-I 5 W/m 0,0 C -0,1 C 8,5 km/h (2 Bft) 97,81 %
24.12.2016 08:00 0,7 C 99 % 1031,3 hPa 0,0 l/m 8,1 km/h (2 Bft) W-SW 0,03 h 0,000 mm 0,0 UV-I 22 W/m 0,5 C -1,1 C 12,9 km/h (3 Bft) 99,25 %
24.12.2016 09:00 1,6 C 99 % 1031,1 hPa 0,2 l/m 11,9 km/h (2 Bft) SW 0,00 h 0,000 mm 0,0 UV-I 80 W/m 1,4 C -3,1 C 17,8 km/h (3 Bft) 97,91 %
24.12.2016 10:00 2,8 C 97 % 1031,1 hPa 0,6 l/m 12,0 km/h (2 Bft) SW 0,00 h 0,025 mm 0,0 UV-I 97 W/m 2,4 C -1,7 C 18,7 km/h (3 Bft) 99,70 %
24.12.2016 11:00 4,0 C 92 % 1030,6 hPa 0,4 l/m 12,8 km/h (3 Bft) SW 0,03 h 0,051 mm 0,0 UV-I 138 W/m 2,9 C -0,8 C 19,9 km/h (4 Bft) 98,05 %
24.12.2016 12:00 5,0 C 90 % 1029,5 hPa 0,2 l/m 10,3 km/h (2 Bft) SW 0,63 h 0,051 mm 0,4 UV-I 201 W/m 3,5 C 1,9 C 16,0 km/h (3 Bft) 99,64 %
24.12.2016 13:00 5,6 C 87 % 1028,7 hPa 0,2 l/m 11,2 km/h (2 Bft) W-SW 0,00 h 0,076 mm 0,0 UV-I 74 W/m 3,6 C 2,1 C 16,7 km/h (3 Bft) 97,80 %
24.12.2016 14:00 5,3 C 88 % 1028,3 hPa 0,0 l/m 8,9 km/h (2 Bft) W-SW 0,00 h 0,051 mm 0,0 UV-I 26 W/m 3,5 C 3,3 C 13,4 km/h (3 Bft) 99,36 %
24.12.2016 15:00 4,4 C 94 % 1028,6 hPa 1,0 l/m 6,7 km/h (2 Bft) SW 0,00 h 0,025 mm 0,0 UV-I 14 W/m 3,5 C 3,9 C 10,4 km/h (2 Bft) 97,83 %
24.12.2016 16:00 4,6 C 96 % 1028,6 hPa 0,2 l/m 16,1 km/h (3 Bft) SW 0,00 h 0,000 mm 0,0 UV-I 7 W/m 4,0 C -1,8 C 25,0 km/h (4 Bft) 99,52 %
24.12.2016 17:00 5,2 C 96 % 1028,7 hPa 0,2 l/m 16,2 km/h (3 Bft) W-SW 0,00 h 0,000 mm 0,0 UV-I 0 W/m 4,6 C -1,2 C 23,5 km/h (4 Bft) 98,08 %
24.12.2016 18:00 5,3 C 97 % 1028,7 hPa 0,0 l/m 17,1 km/h (3 Bft) SW 0,00 h 0,000 mm 0,0 UV-I 0 W/m 4,9 C -1,5 C 24,9 km/h (4 Bft) 99,05 %
24.12.2016 19:00 5,7 C 95 % 1029,0 hPa 0,0 l/m 15,1 km/h (3 Bft) W-SW 0,00 h 0,000 mm 0,0 UV-I 0 W/m 4,9 C -0,0 C 22,7 km/h (4 Bft) 98,34 %
24.12.2016 20:00 6,5 C 90 % 1029,3 hPa 0,0 l/m 15,0 km/h (3 Bft) W-SW 0,00 h 0,000 mm 0,0 UV-I 0 W/m 5,1 C 1,1 C 24,0 km/h (4 Bft) 98,79 %
24.12.2016 21:00 6,4 C 88 % 1029,6 hPa 0,0 l/m 17,0 km/h (3 Bft) W 0,00 h 0,026 mm 0,0 UV-I 0 W/m 4,5 C -0,1 C 27,6 km/h (4 Bft) 98,93 %
24.12.2016 22:00 6,2 C 87 % 1029,4 hPa 0,0 l/m 14,6 km/h (3 Bft) W-SW 0,00 h 0,025 mm 0,0 UV-I 0 W/m 4,2 C 0,8 C 22,3 km/h (4 Bft) 97,99 %
24.12.2016 23:00 5,9 C 89 % 1028,9 hPa 0,0 l/m 13,5 km/h (3 Bft) SW 0,00 h 0,026 mm 0,0 UV-I 0 W/m 4,1 C 1,0 C 21,0 km/h (4 Bft) 99,37 %
25.12.2016 00:00 5,7 C 89 % 1028,6 hPa 0,0 l/m 15,3 km/h (3 Bft) W-SW 0,00 h 0,000 mm 0,0 UV-I 0 W/m 4,0 C -0,1 C 22,8 km/h (4 Bft) 97,79 %
25.12.2016 01:00 6,4 C 82 % 1028,5 hPa 0,0 l/m 20,2 km/h (4 Bft) W-SW 0,00 h 0,025 mm 0,0 UV-I 0 W/m 3,5 C -1,3 C 30,5 km/h (5 Bft) 98,54 %
25.12.2016 02:00 6,4 C 81 % 1028,2 hPa 0,0 l/m 21,0 km/h (4 Bft) W-SW 0,00 h 0,026 mm 0,0 UV-I 0 W/m 3,4 C -1,6 C 32,5 km/h (5 Bft) 97,80 %
25.12.2016 03:00 6,2 C 82 % 1027,9 hPa 0,2 l/m 21,2 km/h (4 Bft) W-SW 0,00 h 0,051 mm 0,0 UV-I 0 W/m 3,3 C -1,9 C 33,9 km/h (5 Bft) 98,88 %
25.12.2016 04:00 5,9 C 82 % 1027,5 hPa 0,0 l/m 22,5 km/h (4 Bft) W 0,00 h 0,025 mm 0,0 UV-I 0 W/m 3,1 C -2,8 C 35,4 km/h (5 Bft) 97,79 %
25.12.2016 05:00 5,2 C 86 % 1027,6 hPa 0,4 l/m 24,8 km/h (4 Bft) W-SW 0,00 h 0,051 mm 0,0 UV-I 0 W/m 3,0 C -4,6 C 37,5 km/h (5 Bft) 99,15 %
25.12.2016 06:00 4,7 C 90 % 1027,4 hPa 0,6 l/m 23,2 km/h (4 Bft) W-SW 0,00 h 0,025 mm 0,0 UV-I 0 W/m 3,1 C -4,7 C 34,9 km/h (5 Bft) 97,63 %
25.12.2016 07:00 4,7 C 90 % 1027,6 hPa 0,4 l/m 21,9 km/h (4 Bft) W-SW 0,00 h 0,026 mm 0,0 UV-I 4 W/m 3,2 C -4,2 C 34,3 km/h (5 Bft) 98,58 %
25.12.2016 08:00 5,0 C 88 % 1027,7 hPa 0,0 l/m 20,6 km/h (4 Bft) W-SW 0,00 h 0,025 mm 0,0 UV-I 10 W/m 3,1 C -3,3 C 31,8 km/h (5 Bft) 98,73 %
25.12.2016 09:00 5,3 C 88 % 1027,8 hPa 0,0 l/m 18,3 km/h (3 Bft) SW 0,00 h 0,025 mm 0,0 UV-I 23 W/m 3,4 C -2,0 C 27,4 km/h (4 Bft) 97,93 %
25.12.2016 10:00 6,0 C 86 % 1027,8 hPa 0,0 l/m 17,2 km/h (3 Bft) W-SW 0,00 h 0,026 mm 0,0 UV-I 37 W/m 3,9 C -0,7 C 25,9 km/h (4 Bft) 98,85 %
25.12.2016 11:00 6,8 C 83 % 1027,2 hPa 0,0 l/m 18,7 km/h (3 Bft) W-SW 0,00 h 0,025 mm 0,0 UV-I 52 W/m 4,1 C -0,3 C 28,1 km/h (4 Bft) 97,35 %
25.12.2016 12:00 7,3 C 79 % 1026,6 hPa 0,0 l/m 20,9 km/h (4 Bft) W-SW 0,00 h 0,051 mm 0,0 UV-I 43 W/m 3,9 C -0,4 C 32,0 km/h (5 Bft) 99,14 %
25.12.2016 13:00 7,1 C 81 % 1026,1 hPa 0,0 l/m 18,7 km/h (3 Bft) W-SW 0,00 h 0,051 mm 0,0 UV-I 48 W/m 4,1 C 0,2 C 28,7 km/h (4 Bft) 97,73 %
25.12.2016 14:00 7,1 C 82 % 1025,5 hPa 0,0 l/m 15,6 km/h (3 Bft) W-SW 0,00 h 0,051 mm 0,0 UV-I 20 W/m 4,3 C 1,4 C 23,8 km/h (4 Bft) 98,81 %
25.12.2016 15:00 7,2 C 80 % 1025,4 hPa 0,0 l/m 14,2 km/h (3 Bft) W-SW 0,00 h 0,025 mm 0,0 UV-I 13 W/m 4,0 C 2,2 C 20,4 km/h (4 Bft) 97,66 %
25.12.2016 16:00 7,4 C 78 % 1025,7 hPa 0,0 l/m 8,2 km/h (2 Bft) W-SW 0,00 h 0,025 mm 0,0 UV-I 5 W/m 3,8 C 5,7 C 13,2 km/h (3 Bft) 99,29 %
25.12.2016 17:00 7,3 C 79 % 1026,0 hPa 0,0 l/m 7,1 km/h (2 Bft) W-SW 0,00 h 0,026 mm 0,0 UV-I 0 W/m 3,8 C 6,3 C 11,2 km/h (2 Bft) 97,57 %
25.12.2016 18:00 8,3 C 76 % 1026,4 hPa 0,0 l/m 13,9 km/h (3 Bft) W-SW 0,00 h 0,025 mm 0,0 UV-I 0 W/m 4,4 C 3,7 C 21,9 km/h (4 Bft) 98,66 %
25.12.2016 19:00 8,9 C 77 % 1026,7 hPa 0,0 l/m 15,2 km/h (3 Bft) W 0,00 h 0,026 mm 0,0 UV-I 0 W/m 5,0 C 3,8 C 23,8 km/h (4 Bft) 97,81 %
25.12.2016 20:00 8,9 C 80 % 1026,6 hPa 0,0 l/m 15,3 km/h (3 Bft) W 0,00 h 0,050 mm 0,0 UV-I 0 W/m 5,6 C 3,7 C 23,7 km/h (4 Bft) 99,08 %
25.12.2016 21:00 8,8 C 82 % 1026,9 hPa 0,0 l/m 13,1 km/h (3 Bft) W 0,00 h 0,026 mm 0,0 UV-I 0 W/m 6,0 C 4,6 C 20,2 km/h (4 Bft) 98,35 %
25.12.2016 22:00 8,3 C 88 % 1027,3 hPa 0,0 l/m 9,9 km/h (2 Bft) W-SW 0,00 h 0,025 mm 0,0 UV-I 0 W/m 6,4 C 6,0 C 15,9 km/h (3 Bft) 98,66 %
25.12.2016 23:00 7,5 C 93 % 1027,1 hPa 0,0 l/m 10,3 km/h (2 Bft) W-SW 0,00 h 0,026 mm 0,0 UV-I 0 W/m 6,5 C 4,7 C 16,0 km/h (3 Bft) 98,27 %
Min-Datum _ 22.12.16 25.12.16 20.12.16 - 19.12.16 - - - - - 22.12.16 20.12.16 19.12.16 24.12.16
_ Min-Zeit 08:14 18:28 17:54 - 00:00 - - - - - 08:16 09:14 00:00 04:12
Minimum _ -4,1 C 75 % 1025,0 hPa - 0,0 km/h (0 Bft) - - - - - -4,5 C -17,1 C 0,0 km/h (0 Bft) 0,00 %
Max-Datum _ 25.12.16 23.12.16 23.12.16 19.12.16 25.12.16 - 19.12.16 19.12.16 24.12.16 24.12.16 25.12.16 25.12.16 25.12.16 19.12.16
_ Max-Zeit 19:24 18:26 09:46 13:00 04:44 - 13:16 14:02 12:32 12:52 22:38 22:30 04:42 00:00
Maximum _ 9,0 C 99 % 1039,0 hPa 1,2 l/m 34,7 km/h
W (5 Bft)
- 0,03 h 0,076 mm 0,5 UV-I 296 W/m 6,7 C 8,2 C 56,3 km/h
W-SW (7 Bft)
100,00 %
Durchschnitt _ -0,0 C 95 % 1030,8 hPa #7,6 l/m 10,5 km/h (2 Bft) O-NO #2:24 h #1,855 mm 0,4 UV-I 44 W/m -0,9 C -4,1 C 15,6 km/h (3 Bft) 98,34 %